TimeAEST,TemperatureF,Dew PointF,Humidity,Sea Level PressureIn,VisibilityMPH,Wind Direction,Wind SpeedMPH,Gust SpeedMPH,PrecipitationIn,Events,Conditions,WindDirDegrees,DateUTC
12:00 AM,78.8,75.2,89,29.77,-9999.0,ESE,9.2,-,N/A,,Unknown,110,2013-02-20 14:00:00
12:30 AM,78.8,75.2,89,29.77,-9999.0,ENE,4.6,-,N/A,,Unknown,70,2013-02-20 14:30:00
1:00 AM,78.8,77.0,94,29.77,-9999.0,ESE,3.5,-,N/A,,Unknown,120,2013-02-20 15:00:00
1:30 AM,78.8,75.2,89,29.74,-9999.0,SE,3.5,-,N/A,,Unknown,130,2013-02-20 15:30:00
2:00 AM,78.8,75.2,89,29.74,-9999.0,South,4.6,-,N/A,,Unknown,180,2013-02-20 16:00:00
2:30 AM,78.8,77.0,94,29.74,-9999.0,West,2.3,-,N/A,,Unknown,270,2013-02-20 16:30:00
3:00 AM,78,77,96,29.73,,South,5.8,,,,,190,2013-02-20 17:00:00
3:00 AM,77.0,77.0,100,29.74,-9999.0,South,5.8,-,N/A,,Unknown,190,2013-02-20 17:00:00
3:30 AM,77.0,77.0,100,29.71,-9999.0,SSW,4.6,-,N/A,,Unknown,200,2013-02-20 17:30:00
4:00 AM,77.0,77.0,100,29.74,-9999.0,SSW,8.1,-,N/A,,Unknown,210,2013-02-20 18:00:00
4:30 AM,77.0,77.0,100,29.74,-9999.0,South,8.1,-,N/A,,Unknown,170,2013-02-20 18:30:00
5:00 AM,77.0,77.0,100,29.74,-9999.0,South,9.2,-,N/A,,Unknown,190,2013-02-20 19:00:00
5:30 AM,77.0,77.0,100,29.74,-9999.0,South,10.4,-,N/A,,Unknown,180,2013-02-20 19:30:00
6:00 AM,78,77,94,29.75,,SSW,6.9,,,,,200,2013-02-20 20:00:00
6:00 AM,77.0,77.0,100,29.74,-9999.0,South,6.9,-,N/A,,Unknown,190,2013-02-20 20:00:00
6:30 AM,77.0,77.0,100,29.74,-9999.0,South,8.1,-,N/A,,Unknown,190,2013-02-20 20:30:00
7:00 AM,78.8,77.0,94,29.77,-9999.0,South,8.1,-,N/A,,Unknown,190,2013-02-20 21:00:00
7:30 AM,78.8,75.2,89,29.77,-9999.0,South,9.2,-,N/A,,Unknown,170,2013-02-20 21:30:00
8:00 AM,80.6,75.2,84,29.77,-9999.0,South,5.8,-,N/A,,Unknown,190,2013-02-20 22:00:00
8:30 AM,82.4,77.0,84,29.77,-9999.0,SSE,8.1,-,N/A,,Unknown,160,2013-02-20 22:30:00
9:00 AM,82,76,79,29.78,,SSE,9.2,,,,,150,2013-02-20 23:00:00
9:00 AM,82.4,77.0,84,29.77,-9999.0,SSE,9.2,-,N/A,,Unknown,150,2013-02-20 23:00:00
9:30 AM,82.4,75.2,79,29.77,-9999.0,SSE,10.4,-,N/A,,Unknown,150,2013-02-20 23:30:00
10:00 AM,82.4,77.0,84,29.80,-9999.0,SSE,11.5,-,N/A,,Unknown,150,2013-02-21 00:00:00
10:30 AM,82.4,77.0,84,29.80,-9999.0,SSE,12.7,-,N/A,,Unknown,150,2013-02-21 00:30:00
11:00 AM,82.4,77.0,84,29.80,-9999.0,SSE,12.7,-,N/A,,Unknown,150,2013-02-21 01:00:00
11:30 AM,82.4,77.0,84,29.77,-9999.0,SSE,13.8,-,N/A,,Unknown,150,2013-02-21 01:30:00
12:00 PM,84,78,79,29.77,,SSE,13.8,,,,,150,2013-02-21 02:00:00
12:00 PM,84.2,78.8,84,29.77,-9999.0,SSE,13.8,-,N/A,,Unknown,150,2013-02-21 02:00:00
12:30 PM,84.2,75.2,74,29.77,-9999.0,SE,12.7,-,N/A,,Unknown,140,2013-02-21 02:30:00
1:00 PM,84.2,77.0,79,29.74,-9999.0,SE,12.7,-,N/A,,Unknown,140,2013-02-21 03:00:00
2:00 PM,82.4,75.2,79,29.71,-9999.0,East,15.0,-,N/A,,Unknown,90,2013-02-21 04:00:00
2:30 PM,82.4,75.2,79,29.71,-9999.0,East,15.0,-,N/A,,Unknown,100,2013-02-21 04:30:00
3:00 PM,83,76,74,29.71,,East,13.8,,,,,100,2013-02-21 05:00:00
3:00 PM,82.4,75.2,79,29.71,-9999.0,East,13.8,-,N/A,,Unknown,100,2013-02-21 05:00:00
3:30 PM,82.4,75.2,79,29.71,-9999.0,East,15.0,-,N/A,,Unknown,100,2013-02-21 05:30:00
4:00 PM,82.4,75.2,79,29.71,-9999.0,East,15.0,-,N/A,,Unknown,100,2013-02-21 06:00:00
4:30 PM,82.4,73.4,74,29.71,-9999.0,East,16.1,-,N/A,,Unknown,90,2013-02-21 06:30:00
5:00 PM,82.4,75.2,79,29.71,-9999.0,East,15.0,-,N/A,,Unknown,100,2013-02-21 07:00:00
5:30 PM,82.4,75.2,79,29.71,-9999.0,East,15.0,-,N/A,,Unknown,90,2013-02-21 07:30:00
6:00 PM,81,75,77,29.73,,East,15.0,,,,,90,2013-02-21 08:00:00
6:00 PM,80.6,75.2,84,29.74,-9999.0,East,15.0,-,N/A,,Unknown,90,2013-02-21 08:00:00
6:30 PM,80.6,73.4,79,29.74,-9999.0,East,16.1,-,N/A,,Unknown,90,2013-02-21 08:30:00
7:00 PM,80.6,73.4,79,29.74,-9999.0,East,15.0,-,N/A,,Unknown,90,2013-02-21 09:00:00
7:08 PM,80.6,73.4,79,29.74,-9999.0,East,17.3,29.9,N/A,,Unknown,90,2013-02-21 09:08:00
7:30 PM,77.0,75.2,94,29.77,-9999.0,ENE,13.8,-,N/A,,Unknown,70,2013-02-21 09:30:00
8:00 PM,80.6,75.2,84,29.77,-9999.0,East,12.7,-,N/A,,Unknown,90,2013-02-21 10:00:00
8:30 PM,78.8,73.4,83,29.80,-9999.0,ESE,13.8,-,N/A,,Unknown,110,2013-02-21 10:30:00
9:00 PM,78,76,90,29.80,,NE,6.9,,,,,40,2013-02-21 11:00:00
9:00 PM,78.8,75.2,89,29.80,-9999.0,NE,6.9,-,N/A,,Unknown,40,2013-02-21 11:00:00
9:30 PM,78.8,75.2,89,29.80,-9999.0,East,8.1,-,N/A,,Unknown,90,2013-02-21 11:30:00
10:00 PM,77.0,77.0,100,29.77,-9999.0,NNE,5.8,-,N/A,,Unknown,20,2013-02-21 12:00:00
10:30 PM,77.0,77.0,100,29.80,-9999.0,WNW,5.8,-,N/A,,Unknown,300,2013-02-21 12:30:00
11:00 PM,77.0,77.0,100,29.80,-9999.0,NNE,3.5,-,N/A,,Unknown,20,2013-02-21 13:00:00
11:30 PM,77.0,77.0,100,29.80,-9999.0,WSW,8.1,-,N/A,,Unknown,250,2013-02-21 13:30:00